Wheaton NDB, MN

6:44 AM CDT on May 29, 2017 (GMT -0500)
Wheaton Municipal

Weather History for KETH - April, 2013

Change the Weather History Date:

Friday, April 5, 2013

  Actual Average Record
Temperature  
Mean Temperature 26 °F -  
Max Temperature 35 °F 51 °F 84 °F (1991)
Min Temperature 17 °F 29 °F 5 °F (1979)
Degree Days  
Heating Degree Days 39    
Moisture  
Dew Point 25 °F    
Average Humidity 89    
Maximum Humidity 100    
Minimum Humidity 80    
Precipitation  
Precipitation 0.00 in - - ()
Sea Level Pressure  
Sea Level Pressure 30.07 in    
Wind  
Wind Speed 10 mph (ESE)    
Max Wind Speed 28 mph    
Max Gust Speed 33 mph    
Visibility 9 miles    
Events Snow    
Averages and records for this station are not official NWS values.
T = Trace of Precipitation, MM = Missing Value Source: NWS Daily Summary

Daily Weather History Graph

Daily Weather History Graph

Search for Another Location

Airport or City:

Trip Planner

Search our weather history database for the weather conditions in past years. The results will help you decide how hot, cold, wet, or windy it might be!

Date:

Astronomy

Apr. 05, 2013 Rise Set
Actual Time 6:58 AM CDT 8:00 PM CDT
Civil Twilight 6:27 AM CDT 8:30 PM CDT
Nautical Twilight 5:51 AM CDT 9:07 PM CDT
Astronomical Twilight 5:13 AM CDT 9:45 PM CDT
Moon 4:20 AM CDT (4/5) 3:12 PM CDT (4/5)
Length of Visible Light 14h 02m
Length of Day
13h 02m
Waning Crescent, 23% of the Moon is Illuminated
Apr 5
Waning Crescent
Apr 10
New
Apr 18
First Quarter
Apr 25
Full
May 2
Last Quarter

Hourly Weather History & Observations

Time (CDT) Temp. Windchill Dew Point Humidity Pressure Visibility Wind Dir Wind Speed Gust Speed Precip Events Conditions
12:14 AM 23.0 °F 13.9 °F 19.4 °F 86% 30.27 in 10.0 mi NNW 8.1 mph - N/A   Clear
12:34 AM 21.2 °F 12.6 °F 19.4 °F 93% 30.27 in 10.0 mi NNW 6.9 mph - N/A   Clear
12:54 AM 21.2 °F 14.9 °F 19.4 °F 93% 30.27 in 10.0 mi NNW 4.6 mph - N/A   Clear
1:14 AM 21.2 °F 14.9 °F 19.4 °F 93% 30.28 in 10.0 mi NNW 4.6 mph - N/A   Clear
1:34 AM 21.2 °F 14.9 °F 17.6 °F 86% 30.27 in 10.0 mi NW 4.6 mph - N/A   Clear
1:55 AM 19.4 °F - 17.6 °F 93% 30.27 in 10.0 mi Calm Calm - N/A   Clear
2:14 AM 19.4 °F 12.8 °F 17.6 °F 93% 30.27 in 10.0 mi NNW 4.6 mph - N/A   Clear
2:35 AM 19.4 °F - 17.6 °F 93% 30.27 in 10.0 mi Calm Calm - N/A   Clear
2:54 AM 19.4 °F - 17.6 °F 93% 30.27 in 10.0 mi Calm Calm - N/A   Clear
3:14 AM 19.4 °F - 17.6 °F 93% 30.27 in 10.0 mi Calm Calm - N/A   Clear
3:34 AM 17.6 °F - 15.8 °F 93% 30.26 in 10.0 mi Calm Calm - N/A   Clear
3:54 AM 17.6 °F - 15.8 °F 93% 30.26 in 10.0 mi Calm Calm - N/A   Clear
4:14 AM 17.6 °F - 15.8 °F 93% 30.26 in 10.0 mi Calm Calm - N/A   Clear
4:34 AM 17.6 °F - 15.8 °F 93% 30.26 in 10.0 mi Calm Calm - N/A   Clear
4:54 AM 17.6 °F 12.3 °F 15.8 °F 93% 30.25 in 10.0 mi North 3.5 mph - N/A   Clear
5:14 AM 17.6 °F 12.3 °F 15.8 °F 93% 30.24 in 10.0 mi North 3.5 mph - N/A   Clear
5:34 AM 17.6 °F - 15.8 °F 93% 30.24 in 10.0 mi Calm Calm - N/A   Clear
5:54 AM 17.6 °F - 15.8 °F 93% 30.23 in 10.0 mi Calm Calm - N/A   Clear
6:14 AM 17.6 °F - 15.8 °F 93% 30.22 in 10.0 mi Calm Calm - N/A   Clear
6:34 AM 17.6 °F - 15.8 °F 93% 30.22 in 10.0 mi Calm Calm - N/A   Clear
6:54 AM 17.6 °F - 15.8 °F 93% 30.21 in 10.0 mi Calm Calm - N/A   Clear
7:15 AM 19.4 °F - 17.6 °F 93% 30.22 in 10.0 mi Calm Calm - N/A   Clear
7:34 AM 19.4 °F 14.3 °F 19.4 °F 100% 30.21 in 10.0 mi East 3.5 mph - N/A   Mostly Cloudy
7:54 AM 21.2 °F 14.9 °F 19.4 °F 93% 30.21 in 10.0 mi ESE 4.6 mph - N/A   Mostly Cloudy
8:14 AM 24.8 °F 16.9 °F 21.2 °F 86% 30.20 in 10.0 mi SE 6.9 mph - N/A   Mostly Cloudy
8:34 AM 24.8 °F 14.6 °F 21.2 °F 86% 30.19 in 10.0 mi ESE 10.4 mph - N/A   Overcast
8:54 AM 26.6 °F 15.2 °F 21.2 °F 80% 30.19 in 10.0 mi ESE 13.8 mph - N/A   Overcast
9:15 AM 26.6 °F 15.2 °F 23.0 °F 86% 30.19 in 10.0 mi ESE 13.8 mph - N/A   Overcast
9:34 AM 28.4 °F 18.0 °F 24.8 °F 86% 30.18 in 10.0 mi ESE 12.7 mph - N/A   Scattered Clouds
9:54 AM 28.4 °F 17.0 °F 23.0 °F 80% 30.16 in 10.0 mi SE 15.0 mph - N/A   Clear
10:15 AM 28.4 °F 16.6 °F 24.8 °F 86% 30.15 in 10.0 mi SE 16.1 mph - N/A   Clear
10:34 AM 28.4 °F 16.2 °F 23.0 °F 80% 30.16 in 10.0 mi SE 17.3 mph 23.0 mph N/A   Clear
10:54 AM 30.2 °F 20.2 °F 24.8 °F 80% 30.15 in 10.0 mi SE 12.7 mph - N/A   Clear
11:15 AM 30.2 °F 19.8 °F 24.8 °F 80% 30.15 in 5.0 mi SE 13.8 mph - N/A Snow Light Snow
11:34 AM 28.4 °F 16.2 °F 24.8 °F 86% 30.14 in 2.5 mi SE 17.3 mph 20.7 mph N/A Snow Light Snow
11:54 AM 28.4 °F 17.0 °F 26.6 °F 93% 30.14 in 2.5 mi SE 15.0 mph - N/A Snow Light Snow
12:14 PM 28.4 °F 16.6 °F 26.6 °F 93% 30.13 in 0.8 mi SE 16.1 mph - N/A Snow Light Snow
12:34 PM 30.2 °F 18.9 °F 28.4 °F 93% 30.12 in 2.5 mi SE 16.1 mph - N/A Snow Light Snow
12:54 PM 30.2 °F 18.5 °F 28.4 °F 93% 30.12 in 7.0 mi SE 17.3 mph - N/A Snow Light Snow
1:15 PM 30.2 °F 17.4 °F 28.4 °F 93% 30.09 in 10.0 mi ESE 20.7 mph - N/A   Overcast
1:34 PM 30.2 °F 17.4 °F 28.4 °F 93% 30.07 in 10.0 mi ESE 20.7 mph 26.5 mph N/A   Overcast
1:55 PM 30.2 °F 16.5 °F 28.4 °F 93% 30.04 in 10.0 mi ESE 24.2 mph - N/A   Overcast
2:14 PM 32.0 °F 19.5 °F 28.4 °F 87% 30.03 in 10.0 mi ESE 21.9 mph 28.8 mph N/A   Overcast
2:34 PM 32.0 °F 18.4 °F 28.4 °F 87% 30.02 in 10.0 mi ESE 26.5 mph 31.1 mph N/A   Mostly Cloudy
2:54 PM 32.0 °F 18.6 °F 28.4 °F 87% 30.00 in 10.0 mi ESE 25.3 mph - N/A   Overcast
3:14 PM 33.8 °F 21.0 °F 30.2 °F 87% 29.98 in 10.0 mi ESE 25.3 mph 31.1 mph N/A   Mostly Cloudy
3:34 PM 33.8 °F 21.0 °F 30.2 °F 87% 29.95 in 10.0 mi East 25.3 mph 31.1 mph N/A   Scattered Clouds
3:54 PM 33.8 °F 20.8 °F 30.2 °F 87% 29.94 in 10.0 mi ESE 26.5 mph 33.4 mph N/A   Clear
4:14 PM 33.8 °F 20.5 °F 30.2 °F 87% 29.93 in 10.0 mi ESE 27.6 mph - N/A   Clear
4:35 PM 33.8 °F 21.6 °F 30.2 °F 87% 29.93 in 10.0 mi ESE 23.0 mph 29.9 mph N/A   Clear
4:54 PM 33.8 °F 20.5 °F 30.2 °F 87% 29.92 in 10.0 mi ESE 27.6 mph 32.2 mph N/A   Clear
5:15 PM 33.8 °F 21.0 °F 30.2 °F 87% 29.92 in 10.0 mi ESE 25.3 mph - N/A   Clear
5:34 PM 35.6 °F 24.0 °F 30.2 °F 81% 29.93 in 10.0 mi ESE 23.0 mph 32.2 mph N/A   Clear
5:55 PM 35.6 °F 24.2 °F 30.2 °F 81% 29.92 in 10.0 mi ESE 21.9 mph - N/A   Clear
6:14 PM 33.8 °F 22.2 °F 30.2 °F 87% 29.91 in 10.0 mi ESE 20.7 mph - N/A   Clear
6:34 PM 33.8 °F 21.6 °F 30.2 °F 87% 29.90 in 10.0 mi ESE 23.0 mph 31.1 mph N/A   Clear
6:54 PM 33.8 °F 22.5 °F 30.2 °F 87% 29.90 in 10.0 mi ESE 19.6 mph 28.8 mph N/A   Clear
7:14 PM 33.8 °F 22.5 °F 30.2 °F 87% 29.89 in 10.0 mi ESE 19.6 mph 25.3 mph N/A   Clear
7:34 PM 33.8 °F 22.2 °F 30.2 °F 87% 29.87 in 10.0 mi ESE 20.7 mph 27.6 mph N/A   Clear
7:54 PM 33.8 °F 22.5 °F 30.2 °F 87% 29.86 in 10.0 mi ESE 19.6 mph - N/A   Clear
8:14 PM 33.8 °F 22.5 °F 30.2 °F 87% 29.85 in 10.0 mi ESE 19.6 mph - N/A   Clear
8:34 PM 33.8 °F 22.2 °F 30.2 °F 87% 29.84 in 10.0 mi ESE 20.7 mph - N/A   Clear
8:54 PM 33.8 °F 22.8 °F 30.2 °F 87% 29.84 in 10.0 mi East 18.4 mph 25.3 mph N/A   Clear
9:14 PM 33.8 °F 22.2 °F 30.2 °F 87% 29.83 in 10.0 mi ESE 20.7 mph - N/A   Clear
9:34 PM 33.8 °F 22.2 °F 30.2 °F 87% 29.82 in 10.0 mi ESE 20.7 mph 26.5 mph N/A   Clear
9:54 PM 33.8 °F 22.2 °F 30.2 °F 87% 29.82 in 10.0 mi ESE 20.7 mph 27.6 mph N/A   Clear
10:14 PM 33.8 °F 21.9 °F 30.2 °F 87% 29.81 in 10.0 mi ESE 21.9 mph - N/A   Clear
10:34 PM 33.8 °F 22.5 °F 30.2 °F 87% 29.80 in 10.0 mi ESE 19.6 mph - N/A   Clear
10:54 PM 33.8 °F 22.5 °F 30.2 °F 87% 29.79 in 10.0 mi ESE 19.6 mph - N/A   Clear
11:14 PM 33.8 °F 22.2 °F 30.2 °F 87% 29.78 in 10.0 mi ESE 20.7 mph - N/A   Clear
11:34 PM 33.8 °F 22.8 °F 30.2 °F 87% 29.77 in 10.0 mi ESE 18.4 mph - N/A   Clear
11:55 PM 33.8 °F 22.5 °F 30.2 °F 87% 29.76 in 10.0 mi ESE 19.6 mph - N/A   Clear